Location: Antioch Baptist Church
(32.6696°N, 85.7327°W)
Time: 10:45:25
(UTC+00:00)

Cosmos 1703 - Pass Details

Date: 14 July 2020
Orbit: 525 x 539 km, 82.5° (Epoch: 08 August)

Event Time Altitude Azimuth Distance (km) Brightness Sun altitude
Rises 01:13:38 0° 174° (S) 2,641 6.4 -4.8°
Reaches altitude 10° 01:15:48 10° 168° (SSE) 1,757 5.5 -5.2°
Maximum altitude 01:19:31 49° 93° (E) 687 3.5 -5.9°
Drops below altitude 10° 01:23:16 10° 19° (NNE) 1,771 6.1 -6.6°
Sets 01:25:28 0° 13° (NNE) 2,666 7.1 -7.0°
